[[{"header":{"parameterUnit":"m.s-1","parameterCategory":1,"la1":30.2991,"la2":30.254,"lo1":-89.0895,"lo2":-89.0444,"dy":0.0017,"dx":0.0017,"nx":28,"ny":28,"refTime":"2025-01-09T09:00:00:Z","depth":0,"parameterNumber":2,"parameterNumberName":"U-component_of_WINDS"},"data":[0,0,0,0,0,0,0,0,0,0,0,0,0,0,0,0,0,0,0,0,0,0,0,0,0,0,0,0,0,0,0,0,0,0,0,0,0,0,0,0,0,0,0,0,0,0,0,0,0,0,0,0,0,0,0,0,0,0,7.6234,7.6235,0,7.6274,7.6275,7.6275,7.6133,7.6129,7.6124,7.612,7.6163,7.6168,7.6173,0,0,0,0,0,0,0,0,0,0,0,0,0,7.6038,7.6043,7.6234,7.6235,7.6235,7.6274,7.6275,7.6275,7.6134,7.6128,7.6123,7.6118,7.6161,7.6167,7.6173,0,0,0,0,0,0,0,0,0,0,0,0,0,7.6105,7.6044,7.6234,7.6169,7.6164,7.6274,7.6275,7.6275,7.6135,7.6128,7.6122,7.6116,7.6159,7.6167,7.6174,7.6349,0,0,7.6198,7.6201,0,0,0,0,0,0,0,0,7.6102,7.6113,7.6178,7.6174,7.6168,7.6192,7.6221,7.63,7.6136,7.6146,7.612,7.6113,7.6178,7.6184,7.6205,7.6351,7.6353,7.6198,7.6203,7.6206,7.6208,0,0,0,0,0,0,0,7.6097,7.611,7.625,7.618,7.6173,7.6139,7.6142,7.6235,7.6197,7.6145,7.6134,7.6141,7.6174,7.6198,7.6205,7.6354,7.6198,7.6205,7.621,7.6213,7.6649,7.6655,0,0,0,0,0,0,7.6101,7.6107,7.6249,7.6251,7.6118,7.6148,7.615,7.6191,7.6196,7.619,7.6146,7.6134,7.6188,7.6196,7.6206,7.6413,7.6206,7.6213,7.6218,7.6642,7.665,7.6658,0,0,0,0,0,0,7.6097,7.6115,7.6247,7.6177,7.6191,7.6158,7.6204,7.6195,7.6219,7.6197,7.619,7.6178,7.6183,7.6195,7.6315,7.6413,7.6217,7.6224,7.6633,7.6644,7.6654,7.6829,0,0,0,0,0,0,7.6092,7.6114,7.618,7.6179,7.6195,7.6356,7.621,7.62,7.6232,7.6217,7.6225,7.622,7.6179,7.6305,7.6323,7.642,7.623,7.6624,7.6638,7.6651,7.6814,7.6844,7.6869,0,0,0,0,0,7.6086,7.6227,7.6184,7.6202,7.6276,7.6361,7.6371,7.632,7.6241,7.6307,7.6293,7.622,7.6399,7.6318,7.6337,7.6438,7.6618,7.6634,7.665,7.6802,7.6838,7.6869,0,0,0,0,0,0,7.624,7.6226,7.6178,7.6323,7.6345,7.6337,7.6419,7.636,7.6405,7.6388,7.6324,7.6328,7.646,7.646,7.6371,7.6609,7.6495,7.6515,7.6604,7.6638,7.6666,7.6663,7.6236,0,0,0,0,0,7.6292,7.6361,7.6345,7.6475,7.6488,7.6453,7.6487,7.6447,7.6467,7.6475,7.647,7.6493,7.6554,7.6596,7.6651,7.6813,7.6814,7.6892,7.692,7.6943,7.6961,7.705,7.7085,7.6709,7.6709,7.6709,0,0,7.6398,7.6398,7.6446,7.6506,7.6518,7.6593,7.6461,7.6545,7.66,7.6488,7.6601,7.6599,7.662,7.6763,7.6825,7.6768,7.7065,7.6963,7.6981,7.6987,7.7069,7.7105,7.7137,7.672,7.6718,7.6716,0,0,7.663,7.6637,7.6747,7.6762,7.6781,7.6757,7.6784,7.6786,7.678,7.6893,7.6811,7.6876,7.6982,7.7002,7.7025,7.7267,7.7202,7.7287,7.7432,7.7519,7.7548,7.7574,7.7663,7.7695,7.7306,7.7306,7.7306,0,7.676,7.6868,7.6811,7.6902,7.6931,7.6833,7.6945,7.6962,7.7,7.7023,7.6958,7.7091,7.7098,7.7245,7.7304,7.7326,7.7356,7.7286,7.7548,7.7574,7.7597,7.7681,7.7714,7.7316,7.7315,7.7314,7.7313,0,7.7028,7.7105,7.7192,7.7231,7.727,7.7371,7.733,7.7377,7.7334,7.7317,7.7434,7.7439,7.7495,7.7526,7.7484,7.7669,7.7632,7.7559,7.7443,7.7645,7.7722,7.7753,7.7331,7.7327,7.7324,7.7322,0,0,7.7359,7.7366,7.7399,7.7416,7.7432,7.749,7.7588,7.7642,7.7684,7.7714,7.7795,7.7888,7.7821,7.7848,7.7808,7.7884,7.8078,7.7801,7.7801,7.7854,7.8284,7.834,7.8378,7.8035,7.804,7.8045,7.8283,0,7.7589,7.7755,7.7707,7.7874,7.7946,7.7855,7.7939,7.7959,7.7946,7.8006,7.7991,7.8059,7.7964,7.798,7.8051,7.804,7.8164,7.8021,7.8111,7.8115,7.811,7.8418,7.8477,7.8701,7.8312,7.8317,7.8321,0,7.7879,7.7921,7.8095,7.8101,7.8129,7.8206,7.8253,7.8311,7.8332,7.8317,7.8349,7.8293,7.839,7.8274,7.8408,7.8312,7.8346,7.8346,7.8354,7.8361,7.8231,7.8436,7.8771,7.8806,7.8368,7.8364,7.8361,0,7.8106,7.8205,7.8323,7.834,7.8349,7.8406,7.8412,7.8426,7.8463,7.8504,7.8527,7.858,7.8609,7.8651,7.8612,7.853,7.8754,7.8633,7.8746,7.8747,7.8798,7.8795,7.9145,7.8818,7.8817,7.8816,7.8816,0,7.8369,7.848,7.8425,7.8498,7.862,7.8564,7.8687,7.8683,7.8697,7.8769,7.8692,7.8761,7.8704,7.8768,7.8738,7.8856,7.8869,7.8861,7.8852,7.8869,7.887,7.8891,7.8875,7.8825,7.8823,7.8822,7.882,0,7.8643,7.8611,7.8734,7.8732,7.8734,7.8825,7.8824,7.8892,7.8873,7.8965,7.8983,7.8955,7.9027,7.8991,7.9066,7.9046,7.9198,7.9167,7.9191,7.9184,7.9299,7.929,7.9676,7.9725,7.9364,7.9368,7.9371,0,7.8814,7.8897,7.8905,7.8947,7.8959,7.9028,7.9065,7.9013,7.9055,7.9086,7.9151,7.9216,7.9266,7.9385,7.9372,7.9429,7.94,7.9532,7.9409,7.9424,7.9405,7.9401,7.941,7.9557,7.9562,7.9565,7.9568,0,7.9121,7.9101,7.9157,7.9209,7.9255,7.9293,7.9325,7.9364,7.9314,7.9365,7.9437,7.9476,7.9552,7.9619,7.9669,7.9676,7.9616,7.9607,7.9636,7.9655,7.9666,7.9664,7.926,7.9598,7.9595,7.9593,7.9591,7.959,7.935,7.9421,7.9438,7.9503,7.9522,7.9554,7.9618,7.9608,7.9667,7.9726,7.9692,7.9777,7.9798,7.9859,7.9874,7.9941,7.9889,7.9932,7.9943,7.9954,7.9971,7.9655,7.995,7.9949,7.9948,7.9948,7.9947,0,7.9655,7.9662,7.9723,7.977,7.9822,7.9758,7.979,7.9839,7.9915,7.9938,7.9989,8.0074,8.0138,8.013,8.019,8.0245,8.0219,8.0262,8.0259,8.0262,8.0013,7.9982,8.0283,8.0283,8.0283,8.0283,8.0283,8.0283,7.982,7.9937,7.992,8.0046,8.0051,8.0134,8.0159,8.0188,8.0207,8.0305,8.0358,8.0352,8.0364,8.0423,8.048,8.0476,8.0503,8.0558,8.0544,8.0312,8.0279,8.0247,8.0218,8.0564,8.0564,8.0787,8.0789,8.0791]},{"header":{"parameterUnit":"m.s-1","parameterCategory":1,"la1":30.2991,"la2":30.254,"lo1":-89.0895,"lo2":-89.0444,"dy":0.0017,"dx":0.0017,"nx":28,"ny":28,"refTime":"2025-01-09T09:00:00:Z","depth":0,"parameterNumber":3,"parameterNumberName":"V-component_of_WINDS"},"data":[0,0,0,0,0,0,0,0,0,0,0,0,0,0,0,0,0,0,0,0,0,0,0,0,0,0,0,0,0,0,0,0,0,0,0,0,0,0,0,0,0,0,0,0,0,0,0,0,0,0,0,0,0,0,0,0,0,0,0.0312,0.0314,0,0.0478,0.048,0.0481,0.055,0.055,0.055,0.0549,0.0716,0.072,0.0725,0,0,0,0,0,0,0,0,0,0,0,0,0,0.0051,0.0055,0.0312,0.0314,0.0316,0.0477,0.048,0.0482,0.055,0.055,0.0549,0.0549,0.0714,0.072,0.0725,0,0,0,0,0,0,0,0,0,0,0,0,0,0.0185,0.0057,0.0311,0.037,0.0377,0.0477,0.048,0.0483,0.055,0.055,0.0549,0.0549,0.0712,0.0719,0.0726,0.078,0,0,0.0748,0.0751,0,0,0,0,0,0,0,0,0.0177,0.0194,0.0359,0.0366,0.0374,0.0493,0.0449,0.0582,0.055,0.0484,0.0549,0.0549,0.0642,0.0654,0.0687,0.0788,0.0795,0.0748,0.0753,0.0756,0.0758,0,0,0,0,0,0,0,0.0168,0.0188,0.0377,0.0361,0.037,0.0386,0.0405,0.0474,0.0564,0.049,0.0495,0.0514,0.0645,0.068,0.0691,0.0797,0.0748,0.0754,0.0759,0.0762,0.095,0.095,0,0,0,0,0,0,0.0149,0.0179,0.0372,0.0382,0.0272,0.0391,0.0412,0.0455,0.0563,0.0579,0.0514,0.0517,0.0668,0.0683,0.0697,0.0767,0.0756,0.0762,0.0766,0.0949,0.095,0.0951,0,0,0,0,0,0,0.0144,0.0166,0.0365,0.0283,0.0309,0.0396,0.0444,0.0459,0.0493,0.0582,0.0597,0.0533,0.0668,0.0687,0.0759,0.0774,0.0766,0.0772,0.0948,0.0949,0.095,0.0908,0,0,0,0,0,0,0.0136,0.0164,0.0186,0.0283,0.0313,0.0426,0.0445,0.0462,0.0505,0.051,0.0603,0.0618,0.0669,0.0748,0.0766,0.0784,0.0778,0.0947,0.0949,0.095,0.0908,0.0907,0.0907,0,0,0,0,0,0.0126,0.0167,0.0187,0.021,0.0343,0.0426,0.0444,0.0502,0.0506,0.0529,0.0586,0.0615,0.0769,0.0755,0.0776,0.0796,0.0947,0.0948,0.095,0.0909,0.0908,0.0907,0,0,0,0,0,0,0.0069,0.0181,0.0204,0.0277,0.0342,0.0438,0.0469,0.0499,0.0564,0.0565,0.0633,0.0654,0.072,0.0765,0.0747,0.0853,0.086,0.0866,0.0822,0.0821,0.082,0.0809,0.0783,0,0,0,0,0,0.0065,0.0124,0.0218,0.0273,0.0305,0.0381,0.0419,0.0459,0.0528,0.0555,0.0618,0.0682,0.0745,0.0786,0.0848,0.0914,0.0935,0.0938,0.0937,0.0936,0.0941,0.0978,0.0981,0.0956,0.0956,0.0956,0,0,0.0057,0.0125,0.0159,0.0264,0.0319,0.0377,0.0403,0.0465,0.0509,0.0564,0.0637,0.0684,0.0761,0.083,0.0863,0.0869,0.0952,0.0938,0.0937,0.0942,0.098,0.0982,0.0984,0.0957,0.0957,0.0957,0,0,0.0073,0.0131,0.0184,0.0238,0.0321,0.0371,0.0383,0.0475,0.0509,0.0582,0.0625,0.0677,0.0784,0.0837,0.0878,0.0912,0.0942,0.093,0.0926,0.0962,0.0964,0.0966,0.0978,0.0982,0.0934,0.0934,0.0934,0,0.0053,0.0145,0.0206,0.0266,0.031,0.0364,0.0417,0.0466,0.0564,0.0593,0.0598,0.0734,0.0789,0.0871,0.0879,0.091,0.0926,0.0921,0.0959,0.0962,0.0964,0.0977,0.0981,0.0932,0.0933,0.0933,0.0933,0,0.0116,0.0178,0.0211,0.0306,0.0353,0.0409,0.0478,0.0519,0.0553,0.0602,0.0675,0.0743,0.082,0.0842,0.0876,0.0929,0.093,0.0946,0.0955,0.0964,0.0977,0.0982,0.093,0.093,0.0931,0.0931,0,0,0.0102,0.023,0.0241,0.0284,0.0379,0.0428,0.0484,0.0561,0.0595,0.066,0.0709,0.0798,0.0813,0.0859,0.0899,0.093,0.0953,0.0943,0.0946,0.0943,0.1014,0.1002,0.1007,0.0972,0.0973,0.0974,0.1008,0,0.0132,0.0238,0.0295,0.0377,0.0435,0.0485,0.0535,0.0597,0.0644,0.0699,0.0749,0.0811,0.0827,0.0855,0.0888,0.0943,0.0968,0.0941,0.1018,0.102,0.0998,0.1014,0.1001,0.103,0.1013,0.1014,0.1015,0,0.0181,0.0247,0.0335,0.0422,0.0448,0.0492,0.0567,0.0619,0.069,0.0721,0.0772,0.0811,0.0872,0.0874,0.0958,0.0938,0.0972,0.1004,0.1006,0.1016,0.1019,0.1025,0.1041,0.1045,0.1023,0.1022,0.1022,0,0.0163,0.0273,0.034,0.0375,0.0479,0.0508,0.0552,0.0623,0.0665,0.0729,0.0757,0.0826,0.0864,0.0916,0.0972,0.0969,0.105,0.1058,0.1077,0.1076,0.1093,0.1092,0.1115,0.1113,0.1113,0.1113,0.1113,0,0.019,0.0242,0.0333,0.0375,0.0434,0.0497,0.0553,0.0601,0.0663,0.0713,0.076,0.0806,0.0877,0.0931,0.0974,0.1037,0.1053,0.108,0.1091,0.1076,0.1073,0.11,0.11,0.1114,0.1114,0.1114,0.1114,0,0.0181,0.0244,0.032,0.0412,0.0436,0.0475,0.0553,0.0594,0.0642,0.0705,0.0723,0.0798,0.0864,0.0925,0.1012,0.1042,0.1105,0.1118,0.1081,0.1088,0.1104,0.1101,0.1147,0.1156,0.1146,0.1146,0.1146,0,0.0195,0.0236,0.0332,0.037,0.0413,0.0473,0.0516,0.0579,0.0622,0.0705,0.0736,0.0805,0.0865,0.0967,0.1028,0.1095,0.1111,0.1122,0.1122,0.1105,0.1112,0.1109,0.1113,0.1122,0.1122,0.1121,0.1121,0,0.0213,0.0242,0.0304,0.0376,0.0426,0.0486,0.0546,0.0574,0.0648,0.0693,0.0762,0.0808,0.0897,0.0965,0.1039,0.1082,0.1114,0.1121,0.1129,0.1115,0.1092,0.1105,0.108,0.112,0.112,0.112,0.112,0.112,0.0216,0.0255,0.0329,0.0395,0.0448,0.0503,0.0546,0.06,0.0659,0.0738,0.077,0.084,0.0908,0.101,0.1053,0.1107,0.1113,0.1125,0.1128,0.113,0.1127,0.1082,0.112,0.112,0.112,0.112,0.112,0,0.0238,0.0287,0.0348,0.0432,0.0483,0.0509,0.0577,0.0619,0.068,0.0741,0.0799,0.0877,0.0942,0.1009,0.1078,0.1108,0.1124,0.1124,0.1123,0.1132,0.1117,0.1104,0.111,0.111,0.111,0.111,0.111,0.111,0.0255,0.0322,0.0359,0.0452,0.0501,0.0571,0.0607,0.0658,0.0708,0.0793,0.0849,0.0892,0.0955,0.1028,0.1089,0.1107,0.113,0.1126,0.1147,0.1133,0.1133,0.1134,0.1121,0.113,0.113,0.1158,0.1158,0.1158]}]]